• In Hungary
  • List of Countries
  • For 7 days
  • Water Temperature
  • Satellite Maps
  • Weather Map
  • News
  • Weather Widgets
  • user-avatar
    Login

    Hourly Weather Qashqadaryo

    Today, 20 October, Saturday

    Time Temperature Precipitation Wind Pressure Humidity
    00:00 +10°C° 0 mm 2 mps 748 mmHg 32%
    01:00 +10°C° 0 mm 2 mps 747 mmHg 34%
    02:00 +9°C° 0 mm 2 mps 748 mmHg 34%
    03:00 +9°C° 0 mm 2 mps 748 mmHg 35%
    04:00 +9°C° 0 mm 2 mps 748 mmHg 36%
    05:00 +9°C° 0 mm 2 mps 748 mmHg 34%
    06:00 +10°C° 0 mm 2 mps 748 mmHg 32%
    07:00 +10°C° 0 mm 2 mps 748 mmHg 30%
    08:00 +14°C° 0 mm 2 mps 748 mmHg 26%
    09:00 +16°C° 0 mm 2 mps 748 mmHg 22%
    10:00 +18°C° 0 mm 2 mps 748 mmHg 17%
    11:00 +20°C° 0 mm 1 mps 748 mmHg 16%
    12:00 +21°C° 0 mm 1 mps 747 mmHg 15%
    13:00 +22°C° 0 mm 1 mps 747 mmHg 14%
    14:00 +22°C° 0 mm 1 mps 747 mmHg 14%
    15:00 +22°C° 0 mm 1 mps 746 mmHg 14%
    16:00 +22°C° 0 mm 1 mps 746 mmHg 14%
    17:00 +19°C° 0 mm 2 mps 746 mmHg 17%
    18:00 +17°C° 0 mm 2 mps 746 mmHg 20%
    19:00 +15°C° 0 mm 2 mps 746 mmHg 23%
    20:00 +14°C° 0 mm 2 mps 746 mmHg 25%
    21:00 +14°C° 0 mm 2 mps 746 mmHg 26%
    22:00 +13°C° 0 mm 2 mps 746 mmHg 28%
    23:00 +13°C° 0 mm 2 mps 746 mmHg 29%

    Tomorrow, 21 October, Sunday

    Time Temperature Precipitation Wind Pressure Humidity
    00:00 +12°C° 0 mm 2 mps 745 mmHg 30%
    01:00 +12°C° 0 mm 2 mps 745 mmHg 31%
    02:00 +12°C° 0 mm 2 mps 745 mmHg 32%
    03:00 +10°C° 0 mm 2 mps 745 mmHg 33%
    04:00 +10°C° 0 mm 2 mps 745 mmHg 33%
    05:00 +12°C° 0 mm 2 mps 745 mmHg 32%
    06:00 +13°C° 0 mm 2 mps 745 mmHg 30%
    07:00 +14°C° 0 mm 2 mps 746 mmHg 29%
    08:00 +16°C° 0 mm 2 mps 746 mmHg 25%
    09:00 +19°C° 0 mm 2 mps 746 mmHg 21%
    10:00 +21°C° 0 mm 2 mps 746 mmHg 17%
    11:00 +24°C° 0 mm 2 mps 746 mmHg 16%
    12:00 +25°C° 0 mm 2 mps 745 mmHg 15%
    13:00 +26°C° 0 mm 2 mps 745 mmHg 14%
    14:00 +25°C° 0 mm 1 mps 745 mmHg 15%
    15:00 +25°C° 0 mm 1 mps 745 mmHg 15%
    16:00 +23°C° 0 mm 0 mps 744 mmHg 16%
    17:00 +23°C° 0 mm 1 mps 744 mmHg 18%
    18:00 +20°C° 0 mm 1 mps 744 mmHg 21%
    19:00 +17°C° 0 mm 2 mps 744 mmHg 23%
    20:00 +17°C° 0 mm 2 mps 744 mmHg 25%
    21:00 +16°C° 0 mm 2 mps 744 mmHg 26%
    22:00 +16°C° 0 mm 2 mps 744 mmHg 27%
    23:00 +15°C° 0 mm 2 mps 744 mmHg 28%

    Day after tomorrow, 22 October, Monday

    Time Temperature Precipitation Wind Pressure Humidity
    00:00 +15°C° 0 mm 2 mps 744 mmHg 28%
    01:00 +15°C° 0 mm 2 mps 744 mmHg 28%
    02:00 +15°C° 0 mm 2 mps 744 mmHg 28%
    03:00 +15°C° 0 mm 2 mps 744 mmHg 29%
    04:00 +14°C° 0 mm 2 mps 744 mmHg 29%
    05:00 +15°C° 0 mm 2 mps 744 mmHg 28%
    06:00 +16°C° 0 mm 2 mps 744 mmHg 28%
    07:00 +16°C° 0 mm 2 mps 744 mmHg 27%
    08:00 +19°C° 0 mm 2 mps 744 mmHg 23%
    09:00 +21°C° 0 mm 2 mps 744 mmHg 20%
    10:00 +25°C° 0 mm 2 mps 744 mmHg 16%
    11:00 +26°C° 0 mm 2 mps 744 mmHg 15%
    12:00 +27°C° 0 mm 1 mps 743 mmHg 14%
    13:00 +27°C° 0 mm 1 mps 743 mmHg 13%
    14:00 +27°C° 0 mm 1 mps 743 mmHg 13%
    15:00 +25°C° 0 mm 0 mps 743 mmHg 13%
    16:00 +24°C° 0 mm 0 mps 743 mmHg 14%
    17:00 +24°C° 0 mm 1 mps 743 mmHg 16%
    18:00 +21°C° 0 mm 2 mps 743 mmHg 18%
    19:00 +19°C° 0 mm 2 mps 743 mmHg 20%
    20:00 +19°C° 0 mm 3 mps 743 mmHg 20%
    21:00 +18°C° 0 mm 3 mps 743 mmHg 21%
    22:00 +18°C° 0 mm 3 mps 743 mmHg 22%
    23:00 +17°C° 0 mm 3 mps 743 mmHg 22%

    23 October, Tuesday

    Time Temperature Precipitation Wind Pressure Humidity
    00:00 +17°C° 0 mm 3 mps 743 mmHg 23%
    01:00 +16°C° 0 mm 2 mps 742 mmHg 23%
    02:00 +16°C° 0 mm 2 mps 742 mmHg 24%
    03:00 +15°C° 0 mm 2 mps 743 mmHg 24%
    04:00 +15°C° 0 mm 2 mps 743 mmHg 25%
    05:00 +16°C° 0 mm 2 mps 743 mmHg 24%
    06:00 +16°C° 0 mm 2 mps 743 mmHg 23%
    07:00 +17°C° 0 mm 2 mps 743 mmHg 22%
    08:00 +19°C° 0 mm 2 mps 743 mmHg 19%
    09:00 +21°C° 0 mm 2 mps 744 mmHg 16%
    10:00 +25°C° 0 mm 2 mps 744 mmHg 14%
    11:00 +26°C° 0 mm 2 mps 744 mmHg 13%
    12:00 +27°C° 0 mm 1 mps 743 mmHg 12%
    13:00 +27°C° 0 mm 1 mps 743 mmHg 11%
    14:00 +27°C° 0 mm 1 mps 743 mmHg 12%
    15:00 +26°C° 0 mm 1 mps 743 mmHg 12%
    16:00 +26°C° 0 mm 1 mps 743 mmHg 13%
    17:00 +24°C° 0 mm 2 mps 743 mmHg 14%
    18:00 +23°C° 0 mm 2 mps 743 mmHg 16%
    19:00 +20°C° 0 mm 3 mps 743 mmHg 18%
    20:00 +20°C° 0 mm 3 mps 743 mmHg 18%
    21:00 +20°C° 0 mm 3 mps 743 mmHg 19%
    22:00 +20°C° 0 mm 3 mps 743 mmHg 19%
    23:00 +19°C° 0 mm 3 mps 743 mmHg 20%

    24 October, Wednesday

    Time Temperature Precipitation Wind Pressure Humidity
    00:00 +19°C° 0 mm 3 mps 743 mmHg 21%
    01:00 +18°C° 0 mm 3 mps 742 mmHg 22%
    02:00 +18°C° 0 mm 3 mps 742 mmHg 22%
    03:00 +18°C° 0 mm 3 mps 742 mmHg 22%
    04:00 +18°C° 0 mm 3 mps 742 mmHg 22%
    05:00 +19°C° 0 mm 3 mps 742 mmHg 22%
    06:00 +19°C° 0 mm 2 mps 743 mmHg 21%
    07:00 +19°C° 0 mm 2 mps 743 mmHg 21%
    08:00 +21°C° 0 mm 2 mps 743 mmHg 18%
    09:00 +23°C° 0 mm 2 mps 743 mmHg 16%
    10:00 +25°C° 0 mm 2 mps 743 mmHg 13%
    11:00 +26°C° 0 mm 2 mps 743 mmHg 13%
    12:00 +27°C° 0 mm 2 mps 742 mmHg 12%
    13:00 +28°C° 0 mm 2 mps 742 mmHg 12%
    14:00 +27°C° 0 mm 2 mps 742 mmHg 12%
    15:00 +27°C° 0 mm 2 mps 741 mmHg 13%
    16:00 +27°C° 0 mm 2 mps 741 mmHg 13%
    17:00 +25°C° 0 mm 2 mps 741 mmHg 15%
    18:00 +22°C° 0 mm 3 mps 741 mmHg 17%
    19:00 +21°C° 0 mm 3 mps 741 mmHg 19%
    20:00 +20°C° 0 mm 3 mps 741 mmHg 20%
    21:00 +20°C° 0 mm 3 mps 741 mmHg 21%
    22:00 +19°C° 0 mm 3 mps 741 mmHg 22%
    23:00 +19°C° 0 mm 3 mps 741 mmHg 22%

    25 October, Thursday

    Time Temperature Precipitation Wind Pressure Humidity
    00:00 +18°C° 0 mm 3 mps 741 mmHg 23%
    01:00 +18°C° 0 mm 3 mps 741 mmHg 23%
    02:00 +17°C° 0 mm 3 mps 741 mmHg 24%
    03:00 +17°C° 0 mm 3 mps 741 mmHg 24%
    04:00 +17°C° 0 mm 3 mps 741 mmHg 25%
    05:00 +17°C° 0 mm 3 mps 741 mmHg 25%
    06:00 +17°C° 0 mm 3 mps 741 mmHg 25%
    07:00 +17°C° 0 mm 3 mps 741 mmHg 25%
    08:00 +20°C° 0 mm 4 mps 741 mmHg 21%
    09:00 +23°C° 0 mm 4 mps 741 mmHg 18%
    10:00 +27°C° 0 mm 4 mps 741 mmHg 14%
    11:00 +28°C° 0 mm 4 mps 741 mmHg 13%
    12:00 +29°C° 0 mm 5 mps 740 mmHg 11%
    13:00 +30°C° 0 mm 5 mps 740 mmHg 10%
    14:00 +29°C° 0 mm 4 mps 740 mmHg 10%
    15:00 +29°C° 0 mm 4 mps 739 mmHg 11%
    16:00 +29°C° 0 mm 3 mps 739 mmHg 11%
    17:00 +27°C° 0 mm 3 mps 739 mmHg 12%
    18:00 +25°C° 0 mm 4 mps 739 mmHg 13%
    19:00 +22°C° 0 mm 4 mps 739 mmHg 14%
    20:00 +22°C° 0 mm 4 mps 739 mmHg 14%
    21:00 +21°C° 0 mm 4 mps 739 mmHg 14%
    22:00 +21°C° 0 mm 4 mps 739 mmHg 14%
    23:00 +20°C° 0 mm 4 mps 739 mmHg 15%
    Show more